Year,Month,Day,Hour,Minute,Value (Times are PST for temperature in C)
2015,06,30,00,00,22.30
2015,06,30,00,01,22.30
2015,06,30,00,02,22.30
2015,06,30,00,03,22.30
2015,06,30,00,04,22.30
2015,06,30,00,05,22.20
2015,06,30,00,06,22.20
2015,06,30,00,07,22.20
2015,06,30,00,08,22.20
2015,06,30,00,09,22.10
2015,06,30,00,10,22.10
2015,06,30,00,11,22.00
2015,06,30,00,12,21.90
2015,06,30,00,13,21.90
2015,06,30,00,14,21.80
2015,06,30,00,15,21.80
2015,06,30,00,16,21.80
2015,06,30,00,17,21.80
2015,06,30,00,18,21.80
2015,06,30,00,19,21.70
2015,06,30,00,20,21.70
2015,06,30,00,21,21.70
2015,06,30,00,22,21.70
2015,06,30,00,23,21.80
2015,06,30,00,24,21.90
2015,06,30,00,25,22.00
2015,06,30,00,26,22.00
2015,06,30,00,27,22.10
2015,06,30,00,28,22.10
2015,06,30,00,29,22.10
2015,06,30,00,30,22.10
2015,06,30,00,31,22.10
2015,06,30,00,32,22.10
2015,06,30,00,33,22.10
2015,06,30,00,34,22.10
2015,06,30,00,35,22.10
2015,06,30,00,36,22.10
2015,06,30,00,37,22.20
2015,06,30,00,38,22.20
2015,06,30,00,39,22.20
2015,06,30,00,40,22.30
2015,06,30,00,41,22.30
2015,06,30,00,42,22.30
2015,06,30,00,43,22.40
2015,06,30,00,44,22.40
2015,06,30,00,45,22.40
2015,06,30,00,46,22.40
2015,06,30,00,47,22.40
2015,06,30,00,48,22.40
2015,06,30,00,49,22.40
2015,06,30,00,50,22.30
2015,06,30,00,51,22.30
2015,06,30,00,52,22.30
2015,06,30,00,53,22.20
2015,06,30,00,54,22.20
2015,06,30,00,55,22.10
2015,06,30,00,56,22.10
2015,06,30,00,57,22.00
2015,06,30,00,58,22.00
2015,06,30,00,59,21.90
2015,06,30,01,00,21.80
2015,06,30,01,01,21.80
2015,06,30,01,02,21.70
2015,06,30,01,03,21.70
2015,06,30,01,04,21.60
2015,06,30,01,05,21.60
2015,06,30,01,06,21.50
2015,06,30,01,07,21.50
2015,06,30,01,08,21.40
2015,06,30,01,09,21.40
2015,06,30,01,10,21.30
2015,06,30,01,11,21.30
2015,06,30,01,12,21.20
2015,06,30,01,13,21.10
2015,06,30,01,14,21.10
2015,06,30,01,15,21.00
2015,06,30,01,16,21.00
2015,06,30,01,17,20.90
2015,06,30,01,18,20.80
2015,06,30,01,19,20.80
2015,06,30,01,20,20.70
2015,06,30,01,21,20.70
2015,06,30,01,22,20.70
2015,06,30,01,23,20.60
2015,06,30,01,24,20.60
2015,06,30,01,25,20.60
2015,06,30,01,26,20.70
2015,06,30,01,27,20.70
2015,06,30,01,28,20.70
2015,06,30,01,29,20.80
2015,06,30,01,30,20.80
2015,06,30,01,31,20.80
2015,06,30,01,32,20.80
2015,06,30,01,33,20.80
2015,06,30,01,34,20.80
2015,06,30,01,35,20.80
2015,06,30,01,36,20.80
2015,06,30,01,37,20.80
2015,06,30,01,38,20.90
2015,06,30,01,39,20.90
2015,06,30,01,40,20.90
2015,06,30,01,41,20.90
2015,06,30,01,42,20.90
2015,06,30,01,43,20.90
2015,06,30,01,44,20.90
2015,06,30,01,45,20.90
2015,06,30,01,46,20.90
2015,06,30,01,47,21.00
2015,06,30,01,48,21.00
2015,06,30,01,49,21.00
2015,06,30,01,50,21.00
2015,06,30,01,51,21.00
2015,06,30,01,52,21.00
2015,06,30,01,53,21.00
2015,06,30,01,54,21.00
2015,06,30,01,55,21.00
2015,06,30,01,56,21.00
2015,06,30,01,57,21.00
2015,06,30,01,58,20.90
2015,06,30,01,59,20.90
2015,06,30,02,00,20.80
2015,06,30,02,01,20.80
2015,06,30,02,02,20.70
2015,06,30,02,03,20.70
2015,06,30,02,04,20.60
2015,06,30,02,05,20.50
2015,06,30,02,06,20.50
2015,06,30,02,07,20.40
2015,06,30,02,08,20.40
2015,06,30,02,09,20.30
2015,06,30,02,10,20.30
2015,06,30,02,11,20.30
2015,06,30,02,12,20.30
2015,06,30,02,13,20.30
2015,06,30,02,14,20.30
2015,06,30,02,15,20.30
2015,06,30,02,16,20.30
2015,06,30,02,17,20.30
2015,06,30,02,18,20.30
2015,06,30,02,19,20.30
2015,06,30,02,20,20.30
2015,06,30,02,21,20.30
2015,06,30,02,22,20.30
2015,06,30,02,23,20.30
2015,06,30,02,24,20.20
2015,06,30,02,25,20.20
2015,06,30,02,26,20.20
2015,06,30,02,27,20.10
2015,06,30,02,28,20.10
2015,06,30,02,29,20.10
2015,06,30,02,30,20.00
2015,06,30,02,31,20.00
2015,06,30,02,32,19.90
2015,06,30,02,33,19.90
2015,06,30,02,34,19.80
2015,06,30,02,35,19.70
2015,06,30,02,36,19.70
2015,06,30,02,37,19.60
2015,06,30,02,38,19.50
2015,06,30,02,39,19.50
2015,06,30,02,40,19.50
2015,06,30,02,41,19.40
2015,06,30,02,42,19.30
2015,06,30,02,43,19.30
2015,06,30,02,44,19.20
2015,06,30,02,45,19.10
2015,06,30,02,46,19.00
2015,06,30,02,47,18.90
2015,06,30,02,48,18.90
2015,06,30,02,49,18.90
2015,06,30,02,50,18.80
2015,06,30,02,51,18.80
2015,06,30,02,52,18.80
2015,06,30,02,53,18.70
2015,06,30,02,54,18.70
2015,06,30,02,55,18.70
2015,06,30,02,56,18.70
2015,06,30,02,57,18.70
2015,06,30,02,58,18.60
2015,06,30,02,59,18.60
2015,06,30,03,00,18.50
2015,06,30,03,01,18.40
2015,06,30,03,02,18.40
2015,06,30,03,03,18.30
2015,06,30,03,04,18.30
2015,06,30,03,05,18.20
2015,06,30,03,06,18.20
2015,06,30,03,07,18.10
2015,06,30,03,08,18.10
2015,06,30,03,09,18.00
2015,06,30,03,10,18.00
2015,06,30,03,11,17.90
2015,06,30,03,12,17.90
2015,06,30,03,13,17.90
2015,06,30,03,14,17.80
2015,06,30,03,15,17.80
2015,06,30,03,16,17.80
2015,06,30,03,17,17.80
2015,06,30,03,18,17.80
2015,06,30,03,19,17.70
2015,06,30,03,20,17.70
2015,06,30,03,21,17.70
2015,06,30,03,22,17.70
2015,06,30,03,23,17.70
2015,06,30,03,24,17.70
2015,06,30,03,25,17.60
2015,06,30,03,26,17.60
2015,06,30,03,27,17.60
2015,06,30,03,28,17.50
2015,06,30,03,29,17.50
2015,06,30,03,30,17.40
2015,06,30,03,31,17.40
2015,06,30,03,32,17.40
2015,06,30,03,33,17.40
2015,06,30,03,34,17.40
2015,06,30,03,35,17.40
2015,06,30,03,36,17.40
2015,06,30,03,37,17.40
2015,06,30,03,38,17.30
2015,06,30,03,39,17.30
2015,06,30,03,40,17.30
2015,06,30,03,41,17.30
2015,06,30,03,42,17.20
2015,06,30,03,43,17.20
2015,06,30,03,44,17.20
2015,06,30,03,45,17.20
2015,06,30,03,46,17.20
2015,06,30,03,47,17.20
2015,06,30,03,48,17.20
2015,06,30,03,49,17.20
2015,06,30,03,50,17.20
2015,06,30,03,51,17.20
2015,06,30,03,52,17.20
2015,06,30,03,53,17.20
2015,06,30,03,54,17.20
2015,06,30,03,55,17.10
2015,06,30,03,56,17.10
2015,06,30,03,57,17.10
2015,06,30,03,58,17.10
2015,06,30,03,59,17.10
2015,06,30,04,00,17.10
2015,06,30,04,01,17.10
2015,06,30,04,02,17.10
2015,06,30,04,03,17.10
2015,06,30,04,04,17.10
2015,06,30,04,05,17.00
2015,06,30,04,06,17.00
2015,06,30,04,07,17.00
2015,06,30,04,08,16.90
2015,06,30,04,09,16.90
2015,06,30,04,10,16.90
2015,06,30,04,11,16.90
2015,06,30,04,12,16.90
2015,06,30,04,13,16.90
2015,06,30,04,14,16.90
2015,06,30,04,15,16.90
2015,06,30,04,16,16.90
2015,06,30,04,17,16.80
2015,06,30,04,18,16.80
2015,06,30,04,19,16.80
2015,06,30,04,20,16.80
2015,06,30,04,21,16.80
2015,06,30,04,22,16.70
2015,06,30,04,23,16.70
2015,06,30,04,24,16.70
2015,06,30,04,25,16.70
2015,06,30,04,26,16.60
2015,06,30,04,27,16.60
2015,06,30,04,28,16.60
2015,06,30,04,29,16.60
2015,06,30,04,30,16.50
2015,06,30,04,31,16.50
2015,06,30,04,32,16.50
2015,06,30,04,33,16.50
2015,06,30,04,34,16.50
2015,06,30,04,35,16.40
2015,06,30,04,36,16.40
2015,06,30,04,37,16.40
2015,06,30,04,38,16.40
2015,06,30,04,39,16.40
2015,06,30,04,40,16.40
2015,06,30,04,41,16.30
2015,06,30,04,42,16.30
2015,06,30,04,43,16.30
2015,06,30,04,44,16.30
2015,06,30,04,45,16.30
2015,06,30,04,46,16.30
2015,06,30,04,47,16.30
2015,06,30,04,48,16.30
2015,06,30,04,49,16.20
2015,06,30,04,50,16.20
2015,06,30,04,51,16.20
2015,06,30,04,52,16.20
2015,06,30,04,53,16.30
2015,06,30,04,54,16.30
2015,06,30,04,55,16.30
2015,06,30,04,56,16.30
2015,06,30,04,57,16.30
2015,06,30,04,58,16.20
2015,06,30,04,59,16.20
2015,06,30,05,00,16.20
2015,06,30,05,01,16.20
2015,06,30,05,02,16.10
2015,06,30,05,03,16.10
2015,06,30,05,04,16.10
2015,06,30,05,05,16.10
2015,06,30,05,06,16.10
2015,06,30,05,07,16.00
2015,06,30,05,08,16.00
2015,06,30,05,09,16.00
2015,06,30,05,10,16.00
2015,06,30,05,11,16.00
2015,06,30,05,12,16.00
2015,06,30,05,13,15.90
2015,06,30,05,14,15.90
2015,06,30,05,15,15.90
2015,06,30,05,16,15.90
2015,06,30,05,17,15.90
2015,06,30,05,18,15.90
2015,06,30,05,19,15.90
2015,06,30,05,20,15.90
2015,06,30,05,21,15.90
2015,06,30,05,22,16.00
2015,06,30,05,23,16.00
2015,06,30,05,24,16.00
2015,06,30,05,25,16.00
2015,06,30,05,26,16.00
2015,06,30,05,27,16.00
2015,06,30,05,28,16.00
2015,06,30,05,29,15.90
2015,06,30,05,30,16.00
2015,06,30,05,31,16.00
2015,06,30,05,32,15.90
2015,06,30,05,33,15.90
2015,06,30,05,34,15.90
2015,06,30,05,35,15.90
2015,06,30,05,36,15.90
2015,06,30,05,37,15.90
2015,06,30,05,38,15.90
2015,06,30,05,39,15.80
2015,06,30,05,40,15.80
2015,06,30,05,41,15.80
2015,06,30,05,42,15.80
2015,06,30,05,43,15.80
2015,06,30,05,44,15.80
2015,06,30,05,45,15.80
2015,06,30,05,46,15.80
2015,06,30,05,47,15.80
2015,06,30,05,48,15.80
2015,06,30,05,49,15.80
2015,06,30,05,50,15.80
2015,06,30,05,51,15.90
2015,06,30,05,52,15.90
2015,06,30,05,53,15.90
2015,06,30,05,54,15.90
2015,06,30,05,55,16.00
2015,06,30,05,56,16.00
2015,06,30,05,57,16.00
2015,06,30,05,58,16.00
2015,06,30,05,59,16.10
2015,06,30,06,00,16.10
2015,06,30,06,01,16.10
2015,06,30,06,02,16.10
2015,06,30,06,03,16.10
2015,06,30,06,04,16.10
2015,06,30,06,05,16.20
2015,06,30,06,06,16.20
2015,06,30,06,07,16.20
2015,06,30,06,08,16.30
2015,06,30,06,09,16.30
2015,06,30,06,10,16.30
2015,06,30,06,11,16.30
2015,06,30,06,12,16.30
2015,06,30,06,13,16.40
2015,06,30,06,14,16.40
2015,06,30,06,15,16.40
2015,06,30,06,16,16.50
2015,06,30,06,17,16.50
2015,06,30,06,18,16.60
2015,06,30,06,19,16.60
2015,06,30,06,20,16.70
2015,06,30,06,21,16.80
2015,06,30,06,22,16.90
2015,06,30,06,23,16.90
2015,06,30,06,24,17.00
2015,06,30,06,25,17.00
2015,06,30,06,26,17.10
2015,06,30,06,27,17.10
2015,06,30,06,28,17.10
2015,06,30,06,29,17.10
2015,06,30,06,30,17.10
2015,06,30,06,31,17.10
2015,06,30,06,32,17.20
2015,06,30,06,33,17.20
2015,06,30,06,34,17.30
2015,06,30,06,35,17.40
2015,06,30,06,36,17.40
2015,06,30,06,37,17.50
2015,06,30,06,38,17.50
2015,06,30,06,39,17.60
2015,06,30,06,40,17.60
2015,06,30,06,41,17.70
2015,06,30,06,42,17.70
2015,06,30,06,43,17.80
2015,06,30,06,44,17.90
2015,06,30,06,45,17.90
2015,06,30,06,46,18.00
2015,06,30,06,47,18.10
2015,06,30,06,48,18.10
2015,06,30,06,49,18.30
2015,06,30,06,50,18.40
2015,06,30,06,51,18.40
2015,06,30,06,52,18.50
2015,06,30,06,53,18.60
2015,06,30,06,54,18.70
2015,06,30,06,55,18.90
2015,06,30,06,56,19.00
2015,06,30,06,57,19.10
2015,06,30,06,58,19.20
2015,06,30,06,59,19.30
2015,06,30,07,00,19.40
2015,06,30,07,01,19.50
2015,06,30,07,02,19.60
2015,06,30,07,03,19.80
2015,06,30,07,04,19.90
2015,06,30,07,05,20.10
2015,06,30,07,06,20.20
2015,06,30,07,07,20.30
2015,06,30,07,08,20.40
2015,06,30,07,09,20.50
2015,06,30,07,10,20.50
2015,06,30,07,11,20.60
2015,06,30,07,12,20.60
2015,06,30,07,13,20.60
2015,06,30,07,14,20.60
2015,06,30,07,15,20.50
2015,06,30,07,16,20.50
2015,06,30,07,17,20.40
2015,06,30,07,18,20.30
2015,06,30,07,19,20.30
2015,06,30,07,20,20.30
2015,06,30,07,21,20.20
2015,06,30,07,22,20.20
2015,06,30,07,23,20.20
2015,06,30,07,24,20.20
2015,06,30,07,25,20.10
2015,06,30,07,26,20.10
2015,06,30,07,27,20.10
2015,06,30,07,28,20.10
2015,06,30,07,29,20.00
2015,06,30,07,30,20.00
2015,06,30,07,31,20.00
2015,06,30,07,32,20.00
2015,06,30,07,33,20.00
2015,06,30,07,34,20.00
2015,06,30,07,35,20.00
2015,06,30,07,36,20.00
2015,06,30,07,37,20.00
2015,06,30,07,38,20.10
2015,06,30,07,39,20.10
2015,06,30,07,40,20.10
2015,06,30,07,41,20.10
2015,06,30,07,42,20.20
2015,06,30,07,43,20.20
2015,06,30,07,44,20.10
2015,06,30,07,45,20.10
2015,06,30,07,46,20.10
2015,06,30,07,47,20.10
2015,06,30,07,48,20.10
2015,06,30,07,49,20.10
2015,06,30,07,50,20.10
2015,06,30,07,51,20.10
2015,06,30,07,52,20.10
2015,06,30,07,53,20.10
2015,06,30,07,54,20.10
2015,06,30,07,55,20.10
2015,06,30,07,56,20.10
2015,06,30,07,57,20.10
2015,06,30,07,58,20.10
2015,06,30,07,59,20.10
2015,06,30,08,00,20.10
2015,06,30,08,01,20.10
2015,06,30,08,02,20.10
2015,06,30,08,03,20.20
2015,06,30,08,04,20.20
2015,06,30,08,05,20.20
2015,06,30,08,06,20.20
2015,06,30,08,07,20.20
2015,06,30,08,08,20.20
2015,06,30,08,09,20.30
2015,06,30,08,10,20.30
2015,06,30,08,11,20.30
2015,06,30,08,12,20.30
2015,06,30,08,13,20.30
2015,06,30,08,14,20.30
2015,06,30,08,15,20.30
2015,06,30,08,16,20.20
2015,06,30,08,17,20.20
2015,06,30,08,18,20.20
2015,06,30,08,19,20.20
2015,06,30,08,20,20.30
2015,06,30,08,21,20.30
2015,06,30,08,22,20.30
2015,06,30,08,23,20.30
2015,06,30,08,24,20.20
2015,06,30,08,25,20.20
2015,06,30,08,26,20.20
2015,06,30,08,27,20.20
2015,06,30,08,28,20.20
2015,06,30,08,29,20.20
2015,06,30,08,30,20.10
2015,06,30,08,31,20.10
2015,06,30,08,32,20.10
2015,06,30,08,33,20.10
2015,06,30,08,34,20.20
2015,06,30,08,35,20.20
2015,06,30,08,36,20.20
2015,06,30,08,37,20.20
2015,06,30,08,38,20.20
2015,06,30,08,39,20.30
2015,06,30,08,40,20.30
2015,06,30,08,41,20.30
2015,06,30,08,42,20.40
2015,06,30,08,43,20.50
2015,06,30,08,44,20.60
2015,06,30,08,45,20.60
2015,06,30,08,46,20.60
2015,06,30,08,47,20.60
2015,06,30,08,48,20.60
2015,06,30,08,49,20.60
2015,06,30,08,50,20.60
2015,06,30,08,51,20.60
2015,06,30,08,52,20.60
2015,06,30,08,53,20.50
2015,06,30,08,54,20.50
2015,06,30,08,55,20.50
2015,06,30,08,56,20.60
2015,06,30,08,57,20.60
2015,06,30,08,58,20.60
2015,06,30,08,59,20.60
2015,06,30,09,00,20.60
2015,06,30,09,01,20.70
2015,06,30,09,02,20.70
2015,06,30,09,03,20.60
2015,06,30,09,04,20.60
2015,06,30,09,05,20.50
2015,06,30,09,06,20.40
2015,06,30,09,07,20.40
2015,06,30,09,08,20.40
2015,06,30,09,09,20.40
2015,06,30,09,10,20.50
2015,06,30,09,11,20.60
2015,06,30,09,12,20.60
2015,06,30,09,13,20.60
2015,06,30,09,14,20.60
2015,06,30,09,15,20.60
2015,06,30,09,16,20.60
2015,06,30,09,17,20.70
2015,06,30,09,18,20.70
2015,06,30,09,19,20.70
2015,06,30,09,20,20.80
2015,06,30,09,21,20.80
2015,06,30,09,22,20.70
2015,06,30,09,23,20.70
2015,06,30,09,24,20.70
2015,06,30,09,25,20.70
2015,06,30,09,26,20.70
2015,06,30,09,27,20.60
2015,06,30,09,28,20.60
2015,06,30,09,29,20.50
2015,06,30,09,30,20.50
2015,06,30,09,31,20.50
2015,06,30,09,32,20.50
2015,06,30,09,33,20.50
2015,06,30,09,34,20.50
2015,06,30,09,35,20.50
2015,06,30,09,36,20.40
2015,06,30,09,37,20.40
2015,06,30,09,38,20.30
2015,06,30,09,39,20.20
2015,06,30,09,40,20.20
2015,06,30,09,41,20.20
2015,06,30,09,42,20.20
2015,06,30,09,43,20.10
2015,06,30,09,44,20.10
2015,06,30,09,45,20.10
2015,06,30,09,46,20.10
2015,06,30,09,47,20.10
2015,06,30,09,48,20.10
2015,06,30,09,49,20.10
2015,06,30,09,50,20.20
2015,06,30,09,51,20.20
2015,06,30,09,52,20.20
2015,06,30,09,53,20.20
2015,06,30,09,54,20.20
2015,06,30,09,55,20.10
2015,06,30,09,56,20.10
2015,06,30,09,57,20.10
2015,06,30,09,58,20.10
2015,06,30,09,59,20.10
2015,06,30,10,00,20.10
2015,06,30,10,01,20.00
2015,06,30,10,02,20.10
2015,06,30,10,03,20.20
2015,06,30,10,04,20.20
2015,06,30,10,05,20.20
2015,06,30,10,06,20.30
2015,06,30,10,07,20.30
2015,06,30,10,08,20.40
2015,06,30,10,09,20.40
2015,06,30,10,10,20.40
2015,06,30,10,11,20.40
2015,06,30,10,12,20.30
2015,06,30,10,13,20.30
2015,06,30,10,14,20.30
2015,06,30,10,15,20.30
2015,06,30,10,16,20.30
2015,06,30,10,17,20.30
2015,06,30,10,18,20.40
2015,06,30,10,19,20.50
2015,06,30,10,20,20.50
2015,06,30,10,21,20.60
2015,06,30,10,22,20.60
2015,06,30,10,23,20.50
2015,06,30,10,24,20.50
2015,06,30,10,25,20.40
2015,06,30,10,26,20.30
2015,06,30,10,27,20.40
2015,06,30,10,28,20.40
2015,06,30,10,29,20.50
2015,06,30,10,30,20.60
2015,06,30,10,31,20.50
2015,06,30,10,32,20.50
2015,06,30,10,33,20.50
2015,06,30,10,34,20.50
2015,06,30,10,35,20.50
2015,06,30,10,36,20.60
2015,06,30,10,37,20.50
2015,06,30,10,38,20.50
2015,06,30,10,39,20.50
2015,06,30,10,40,20.50
2015,06,30,10,41,20.40
2015,06,30,10,42,20.30
2015,06,30,10,43,20.30
2015,06,30,10,44,20.40
2015,06,30,10,45,20.50
2015,06,30,10,46,20.50
2015,06,30,10,47,20.60
2015,06,30,10,48,20.70
2015,06,30,10,49,20.70
2015,06,30,10,50,20.80
2015,06,30,10,51,20.80
2015,06,30,10,52,20.70
2015,06,30,10,53,20.50
2015,06,30,10,54,20.40
2015,06,30,10,55,20.30
2015,06,30,10,56,20.40
2015,06,30,10,57,20.30
2015,06,30,10,58,20.30
2015,06,30,10,59,20.30
2015,06,30,11,00,20.40
2015,06,30,11,01,20.30
2015,06,30,11,02,20.30
2015,06,30,11,03,20.40
2015,06,30,11,04,20.40
2015,06,30,11,05,20.40
2015,06,30,11,06,20.40
2015,06,30,11,07,20.40
2015,06,30,11,08,20.30
2015,06,30,11,09,20.30
2015,06,30,11,10,20.20
2015,06,30,11,11,20.20
2015,06,30,11,12,20.20
2015,06,30,11,13,20.30
2015,06,30,11,14,20.40
2015,06,30,11,15,20.50
2015,06,30,11,16,20.50
2015,06,30,11,17,20.60
2015,06,30,11,18,20.70
2015,06,30,11,19,20.70
2015,06,30,11,20,20.70
2015,06,30,11,21,20.80
2015,06,30,11,22,20.90
2015,06,30,11,23,20.90
2015,06,30,11,24,20.90
2015,06,30,11,25,20.90
2015,06,30,11,26,20.90
2015,06,30,11,27,20.90
2015,06,30,11,28,20.90
2015,06,30,11,29,20.90
2015,06,30,11,30,21.00
2015,06,30,11,31,21.00
2015,06,30,11,32,21.10
2015,06,30,11,33,21.20
2015,06,30,11,34,21.30
2015,06,30,11,35,21.40
2015,06,30,11,36,21.40
2015,06,30,11,37,21.40
2015,06,30,11,38,21.40
2015,06,30,11,39,21.40
2015,06,30,11,40,21.40
2015,06,30,11,41,21.40
2015,06,30,11,42,21.40
2015,06,30,11,43,21.50
2015,06,30,11,44,21.50
2015,06,30,11,45,21.60
2015,06,30,11,46,21.60
2015,06,30,11,47,21.70
2015,06,30,11,48,21.60
2015,06,30,11,49,21.70
2015,06,30,11,50,21.70
2015,06,30,11,51,21.70
2015,06,30,11,52,21.70
2015,06,30,11,53,21.70
2015,06,30,11,54,21.60
2015,06,30,11,55,21.60
2015,06,30,11,56,21.60
2015,06,30,11,57,21.50
2015,06,30,11,58,21.40
2015,06,30,11,59,21.40
2015,06,30,12,00,21.40
2015,06,30,12,01,21.50
2015,06,30,12,02,21.60
2015,06,30,12,03,21.70
2015,06,30,12,04,21.80
2015,06,30,12,05,21.80
2015,06,30,12,06,21.80
2015,06,30,12,07,21.90
2015,06,30,12,08,21.90
2015,06,30,12,09,21.80
2015,06,30,12,10,21.70
2015,06,30,12,11,21.60
2015,06,30,12,12,21.40
2015,06,30,12,13,21.30
2015,06,30,12,14,21.30
2015,06,30,12,15,21.30
2015,06,30,12,16,21.30
2015,06,30,12,17,21.30
2015,06,30,12,18,21.30
2015,06,30,12,19,21.40
2015,06,30,12,20,21.40
2015,06,30,12,21,21.50
2015,06,30,12,22,21.50
2015,06,30,12,23,21.60
2015,06,30,12,24,21.60
2015,06,30,12,25,21.70
2015,06,30,12,26,21.70
2015,06,30,12,27,21.80
2015,06,30,12,28,21.80
2015,06,30,12,29,21.80
2015,06,30,12,30,21.80
2015,06,30,12,31,21.80
2015,06,30,12,32,21.80
2015,06,30,12,33,21.90
2015,06,30,12,34,22.00
2015,06,30,12,35,22.00
2015,06,30,12,36,22.10
2015,06,30,12,37,22.10
2015,06,30,12,38,22.10
2015,06,30,12,39,22.10
2015,06,30,12,40,22.10
2015,06,30,12,41,22.20
2015,06,30,12,42,22.20
2015,06,30,12,43,22.30
2015,06,30,12,44,22.30
2015,06,30,12,45,22.30
2015,06,30,12,46,22.30
2015,06,30,12,47,22.40
2015,06,30,12,48,22.40
2015,06,30,12,49,22.50
2015,06,30,12,50,22.60
2015,06,30,12,51,22.60
2015,06,30,12,52,22.70
2015,06,30,12,53,22.70
2015,06,30,12,54,22.60
2015,06,30,12,55,22.60
2015,06,30,12,56,22.60
2015,06,30,12,57,22.60
2015,06,30,12,58,22.60
2015,06,30,12,59,22.70
2015,06,30,13,00,22.80
2015,06,30,13,01,22.80
2015,06,30,13,02,22.80
2015,06,30,13,03,22.90
2015,06,30,13,04,22.90
2015,06,30,13,05,22.90
2015,06,30,13,06,22.80
2015,06,30,13,07,22.80
2015,06,30,13,08,22.70
2015,06,30,13,09,22.80
2015,06,30,13,10,22.80
2015,06,30,13,11,22.80
2015,06,30,13,12,22.90
2015,06,30,13,13,23.00
2015,06,30,13,14,23.00
2015,06,30,13,15,23.00
2015,06,30,13,16,23.00
2015,06,30,13,17,23.10
2015,06,30,13,18,23.10
2015,06,30,13,19,23.10
2015,06,30,13,20,23.10
2015,06,30,13,21,23.20
2015,06,30,13,22,23.20
2015,06,30,13,23,23.20
2015,06,30,13,24,23.20
2015,06,30,13,25,23.20
2015,06,30,13,26,23.10
2015,06,30,13,27,23.00
2015,06,30,13,28,23.00
2015,06,30,13,29,22.90
2015,06,30,13,30,22.80
2015,06,30,13,31,22.80
2015,06,30,13,32,22.80
2015,06,30,13,33,22.80
2015,06,30,13,34,22.70
2015,06,30,13,35,22.70
2015,06,30,13,36,22.80
2015,06,30,13,37,22.90
2015,06,30,13,38,22.90
2015,06,30,13,39,23.00
2015,06,30,13,40,23.00
2015,06,30,13,41,22.90
2015,06,30,13,42,22.90
2015,06,30,13,43,22.90
2015,06,30,13,44,22.90
2015,06,30,13,45,22.90
2015,06,30,13,46,23.00
2015,06,30,13,47,23.00
2015,06,30,13,48,23.10
2015,06,30,13,49,23.20
2015,06,30,13,50,23.40
2015,06,30,13,51,23.50
2015,06,30,13,52,23.50
2015,06,30,13,53,23.50
2015,06,30,13,54,23.60
2015,06,30,13,55,23.60
2015,06,30,13,56,23.60
2015,06,30,13,57,23.60
2015,06,30,13,58,23.70
2015,06,30,13,59,23.80
2015,06,30,14,00,23.70
2015,06,30,14,01,23.70
2015,06,30,14,02,23.60
2015,06,30,14,03,23.60
2015,06,30,14,04,23.60
2015,06,30,14,05,23.50
2015,06,30,14,06,23.40
2015,06,30,14,07,23.30
2015,06,30,14,08,23.30
2015,06,30,14,09,23.30
2015,06,30,14,10,23.40
2015,06,30,14,11,23.40
2015,06,30,14,12,23.40
2015,06,30,14,13,23.30
2015,06,30,14,14,23.20
2015,06,30,14,15,23.10
2015,06,30,14,16,23.10
2015,06,30,14,17,23.10
2015,06,30,14,18,23.10
2015,06,30,14,19,23.20
2015,06,30,14,20,23.30
2015,06,30,14,21,23.30
2015,06,30,14,22,23.40
2015,06,30,14,23,23.40
2015,06,30,14,24,23.50
2015,06,30,14,25,23.60
2015,06,30,14,26,23.60
2015,06,30,14,27,23.50
2015,06,30,14,28,23.50
2015,06,30,14,29,23.50
2015,06,30,14,30,23.40
2015,06,30,14,31,23.40
2015,06,30,14,32,23.50
2015,06,30,14,33,23.50
2015,06,30,14,34,23.50
2015,06,30,14,35,23.50
2015,06,30,14,36,23.50
2015,06,30,14,37,23.60
2015,06,30,14,38,23.60
2015,06,30,14,39,23.60
2015,06,30,14,40,23.70
2015,06,30,14,41,23.70
2015,06,30,14,42,23.80
2015,06,30,14,43,23.90
2015,06,30,14,44,24.00
2015,06,30,14,45,24.00
2015,06,30,14,46,24.10
2015,06,30,14,47,24.10
2015,06,30,14,48,24.10
2015,06,30,14,49,24.10
2015,06,30,14,50,24.10
2015,06,30,14,51,24.20
2015,06,30,14,52,24.20
2015,06,30,14,53,24.20
2015,06,30,14,54,24.20
2015,06,30,14,55,24.10
2015,06,30,14,56,24.10
2015,06,30,14,57,24.00
2015,06,30,14,58,23.90
2015,06,30,14,59,23.90
2015,06,30,15,00,24.00
2015,06,30,15,01,24.00
2015,06,30,15,02,24.10
2015,06,30,15,03,24.20
2015,06,30,15,04,24.20
2015,06,30,15,05,24.30
2015,06,30,15,06,24.30
2015,06,30,15,07,24.30
2015,06,30,15,08,24.30
2015,06,30,15,09,24.40
2015,06,30,15,10,24.50
2015,06,30,15,11,24.60
2015,06,30,15,12,24.60
2015,06,30,15,13,24.50
2015,06,30,15,14,24.50
2015,06,30,15,15,24.40
2015,06,30,15,16,24.40
2015,06,30,15,17,24.30
2015,06,30,15,18,24.30
2015,06,30,15,19,24.30
2015,06,30,15,20,24.40
2015,06,30,15,21,24.40
2015,06,30,15,22,24.40
2015,06,30,15,23,24.40
2015,06,30,15,24,24.30
2015,06,30,15,25,24.30
2015,06,30,15,26,24.30
2015,06,30,15,27,24.30
2015,06,30,15,28,24.30
2015,06,30,15,29,24.30
2015,06,30,15,30,24.40
2015,06,30,15,31,24.40
2015,06,30,15,32,24.50
2015,06,30,15,33,24.60
2015,06,30,15,34,24.60
2015,06,30,15,35,24.70
2015,06,30,15,36,24.80
2015,06,30,15,37,24.80
2015,06,30,15,38,24.90
2015,06,30,15,39,25.00
2015,06,30,15,40,25.00
2015,06,30,15,41,25.10
2015,06,30,15,42,25.00
2015,06,30,15,43,25.00
2015,06,30,15,44,24.90
2015,06,30,15,45,24.70
2015,06,30,15,46,24.60
2015,06,30,15,47,24.60
2015,06,30,15,48,24.60
2015,06,30,15,49,24.70
2015,06,30,15,50,24.80
2015,06,30,15,51,24.80
2015,06,30,15,52,25.00
2015,06,30,15,53,25.00
2015,06,30,15,54,25.00
2015,06,30,15,55,24.90
2015,06,30,15,56,24.80
2015,06,30,15,57,24.70
2015,06,30,15,58,24.70
2015,06,30,15,59,24.60
2015,06,30,16,00,24.60
2015,06,30,16,01,24.50
2015,06,30,16,02,24.40
2015,06,30,16,03,24.30
2015,06,30,16,04,24.30
2015,06,30,16,05,24.20
2015,06,30,16,06,24.20
2015,06,30,16,07,24.30
2015,06,30,16,08,24.40
2015,06,30,16,09,24.50
2015,06,30,16,10,24.50
2015,06,30,16,11,24.60
2015,06,30,16,12,24.60
2015,06,30,16,13,24.60
2015,06,30,16,14,24.60
2015,06,30,16,15,24.60
2015,06,30,16,16,24.60
2015,06,30,16,17,24.60
2015,06,30,16,18,24.60
2015,06,30,16,19,24.60
2015,06,30,16,20,24.60
2015,06,30,16,21,24.60
2015,06,30,16,22,24.60
2015,06,30,16,23,24.60
2015,06,30,16,24,24.60
2015,06,30,16,25,24.60
2015,06,30,16,26,24.60
2015,06,30,16,27,24.60
2015,06,30,16,28,24.60
2015,06,30,16,29,24.70
2015,06,30,16,30,24.70
2015,06,30,16,31,24.70
2015,06,30,16,32,24.70
2015,06,30,16,33,24.70
2015,06,30,16,34,24.70
2015,06,30,16,35,24.70
2015,06,30,16,36,24.70
2015,06,30,16,37,24.70
2015,06,30,16,38,24.70
2015,06,30,16,39,24.80
2015,06,30,16,40,24.80
2015,06,30,16,41,24.90
2015,06,30,16,42,25.00
2015,06,30,16,43,25.10
2015,06,30,16,44,25.10
2015,06,30,16,45,25.10
2015,06,30,16,46,25.10
2015,06,30,16,47,25.10
2015,06,30,16,48,25.20
2015,06,30,16,49,25.20
2015,06,30,16,50,25.20
2015,06,30,16,51,25.20
2015,06,30,16,52,25.10
2015,06,30,16,53,25.00
2015,06,30,16,54,24.90
2015,06,30,16,55,24.90
2015,06,30,16,56,24.80
2015,06,30,16,57,24.80
2015,06,30,16,58,24.70
2015,06,30,16,59,24.60
2015,06,30,17,00,24.50
2015,06,30,17,01,24.50
2015,06,30,17,02,24.50
2015,06,30,17,03,24.50
2015,06,30,17,04,24.50
2015,06,30,17,05,24.50
2015,06,30,17,06,24.40
2015,06,30,17,07,24.50
2015,06,30,17,08,24.60
2015,06,30,17,09,24.60
2015,06,30,17,10,24.60
2015,06,30,17,11,24.60
2015,06,30,17,12,24.60
2015,06,30,17,13,24.60
2015,06,30,17,14,24.60
2015,06,30,17,15,24.60
2015,06,30,17,16,24.70
2015,06,30,17,17,24.70
2015,06,30,17,18,24.70
2015,06,30,17,19,24.60